N407PD KCLT-KJQF

Flight info

Callsign N407PD
Flight time N/A
Altitude VFR
Route N
Aircraft C172/L-DOV/C

Departure

Time N/A
Airport Charlotte Douglas International Airport (KCLT)

Arrival

Time 2026-04-19 23:09
Airport Concord-Padgett Regional Airport (KJQF)
Time Latitude Longitude Altitude Speed Heading
2026-04-19 22:50 35.20525 -80.92975 753 ft 0 kts 75°
2026-04-19 22:58 35.20535 -80.92940 805 ft 19 kts 58°
2026-04-19 22:58 35.20657 -80.92640 879 ft 53 kts 54°
2026-04-19 22:59 35.20815 -80.92165 907 ft 65 kts 58°
2026-04-19 22:59 35.21169 -80.91795 937 ft 72 kts 27°
2026-04-19 22:59 35.21644 -80.91496 917 ft 82 kts 24°
2026-04-19 22:59 35.22188 -80.91184 870 ft 89 kts 22°
2026-04-19 23:00 35.22736 -80.90919 913 ft 83 kts 11°
2026-04-19 23:00 35.23306 -80.90771 935 ft 82 kts 10°
2026-04-19 23:00 35.23883 -80.90627 904 ft 88 kts
2026-04-19 23:00 35.24414 -80.90344 953 ft 81 kts 39°
2026-04-19 23:01 35.24835 -80.89880 984 ft 80 kts 39°
2026-04-19 23:01 35.25263 -80.89428 1120 ft 83 kts 43°
2026-04-19 23:01 35.25692 -80.88845 1054 ft 102 kts 44°
2026-04-19 23:01 35.26198 -80.88216 1038 ft 104 kts 43°
2026-04-19 23:02 35.26719 -80.87594 987 ft 108 kts 42°
2026-04-19 23:02 35.27262 -80.86968 905 ft 111 kts 42°
2026-04-19 23:02 35.27811 -80.86333 919 ft 105 kts 39°
2026-04-19 23:02 35.28347 -80.85757 933 ft 104 kts 39°
2026-04-19 23:03 35.28892 -80.85175 933 ft 103 kts 39°
2026-04-19 23:03 35.29429 -80.84600 934 ft 103 kts 39°
2026-04-19 23:03 35.29978 -80.84011 933 ft 104 kts 39°
2026-04-19 23:03 35.30442 -80.83520 1001 ft 78 kts 39°
2026-04-19 23:04 35.30654 -80.83298 1094 ft 75 kts 39°
2026-04-19 23:04 35.30862 -80.83079 1155 ft 77 kts 39°
2026-04-19 23:04 35.31357 -80.82556 1106 ft 116 kts 40°
2026-04-19 23:04 35.31994 -80.81884 1089 ft 122 kts 40°
2026-04-19 23:05 35.32617 -80.81219 1103 ft 112 kts 39°
2026-04-19 23:05 35.33158 -80.80675 1234 ft 92 kts 32°
2026-04-19 23:05 35.33682 -80.80244 1259 ft 91 kts 35°
2026-04-19 23:05 35.34116 -80.79687 1289 ft 90 kts 49°
2026-04-19 23:06 35.34508 -80.79089 1287 ft 92 kts 50°
2026-04-19 23:06 35.34902 -80.78456 1270 ft 95 kts 50°
2026-04-19 23:06 35.35321 -80.77813 1221 ft 98 kts 49°
2026-04-19 23:06 35.35773 -80.77161 1165 ft 101 kts 47°
2026-04-19 23:07 35.36247 -80.76516 1100 ft 102 kts 45°
2026-04-19 23:07 35.36736 -80.75887 1031 ft 103 kts 44°
2026-04-19 23:07 35.37199 -80.75242 1048 ft 90 kts 67°
2026-04-19 23:07 35.37318 -80.74564 1062 ft 77 kts 72°
2026-04-19 23:08 35.37468 -80.73994 1094 ft 67 kts 68°
2026-04-19 23:08 35.37619 -80.73467 1064 ft 69 kts 67°
2026-04-19 23:08 35.37820 -80.72873 950 ft 78 kts 64°
2026-04-19 23:08 35.38030 -80.72259 891 ft 77 kts 65°
2026-04-19 23:09 35.38190 -80.71687 747 ft 54 kts 84°
2026-04-19 23:09 35.38185 -80.71381 667 ft 18 kts 84°
2026-04-19 23:09 35.38203 -80.71279 646 ft 5 kts 60°
2026-04-19 23:09 35.38207 -80.71259 635 ft 1 kts 24°
2026-04-19 23:10 35.38207 -80.71256 634 ft 0 kts 22°
2026-04-19 23:14 35.38209 -80.71255 634 ft 1 kts 21°
2026-04-19 23:14 35.38213 -80.71253 634 ft 0 kts 16°